• In Slovakia
  • List of Countries
  • For 7 days
  • Water Temperature
  • Satellite Maps
  • Weather Map
  • Weather Widgets
  • user-avatar
    Login

    Hourly Weather Yulara

    Today, 11 December, Monday

    Time Temperature Precipitation Wind Pressure Humidity
    00:00 +30°C° 0 mm 5 mps 719 mmHg 11%
    01:00 +29°C° 0 mm 5 mps 719 mmHg 12%
    02:00 +28°C° 0 mm 5 mps 719 mmHg 12%
    03:00 +27°C° 0 mm 5 mps 718 mmHg 14%
    04:00 +27°C° 0 mm 5 mps 719 mmHg 14%
    05:00 +27°C° 0 mm 5 mps 719 mmHg 15%
    06:00 +27°C° 0 mm 5 mps 719 mmHg 16%
    07:00 +29°C° 0 mm 6 mps 719 mmHg 14%
    08:00 +32°C° 0 mm 6 mps 719 mmHg 12%
    09:00 +34°C° 0 mm 7 mps 720 mmHg 10%
    10:00 +35°C° 0 mm 6 mps 719 mmHg 9%
    11:00 +37°C° 0 mm 5 mps 719 mmHg 8%
    12:00 +38°C° 0 mm 4 mps 719 mmHg 8%
    13:00 +38°C° 0 mm 4 mps 718 mmHg 7%
    14:00 +40°C° 0 mm 4 mps 718 mmHg 7%
    15:00 +40°C° 0 mm 4 mps 717 mmHg 7%
    16:00 +40°C° 0 mm 4 mps 717 mmHg 7%
    17:00 +40°C° 0 mm 5 mps 717 mmHg 7%
    18:00 +39°C° 0 mm 5 mps 717 mmHg 7%
    19:00 +37°C° 0 mm 5 mps 717 mmHg 7%
    20:00 +36°C° 0 mm 5 mps 717 mmHg 8%
    21:00 +35°C° 0 mm 4 mps 717 mmHg 8%
    22:00 +34°C° 0 mm 4 mps 717 mmHg 9%
    23:00 +33°C° 0 mm 4 mps 717 mmHg 9%

    Tomorrow, 12 December, Tuesday

    Time Temperature Precipitation Wind Pressure Humidity
    00:00 +33°C° 0 mm 4 mps 717 mmHg 9%
    01:00 +32°C° 0 mm 4 mps 717 mmHg 10%
    02:00 +32°C° 0 mm 4 mps 716 mmHg 10%
    03:00 +30°C° 0 mm 4 mps 716 mmHg 11%
    04:00 +29°C° 0 mm 4 mps 716 mmHg 11%
    05:00 +29°C° 0 mm 3 mps 716 mmHg 12%
    06:00 +28°C° 0 mm 3 mps 717 mmHg 13%
    07:00 +32°C° 0 mm 4 mps 717 mmHg 11%
    08:00 +34°C° 0 mm 5 mps 717 mmHg 10%
    09:00 +38°C° 0 mm 7 mps 717 mmHg 8%
    10:00 +39°C° 0 mm 5 mps 717 mmHg 8%
    11:00 +40°C° 0 mm 4 mps 716 mmHg 8%
    12:00 +40°C° 0 mm 3 mps 716 mmHg 8%
    13:00 +40°C° 0 mm 3 mps 715 mmHg 8%
    14:00 +41°C° 0 mm 2 mps 715 mmHg 9%
    15:00 +41°C° 0 mm 2 mps 714 mmHg 9%
    16:00 +41°C° 0 mm 2 mps 714 mmHg 9%
    17:00 +41°C° 0 mm 2 mps 714 mmHg 9%
    18:00 +42°C° 0 mm 3 mps 714 mmHg 9%
    19:00 +40°C° 0 mm 3 mps 714 mmHg 10%
    20:00 +39°C° 0 mm 3 mps 714 mmHg 11%
    21:00 +37°C° 0 mm 4 mps 714 mmHg 12%
    22:00 +37°C° 0 mm 4 mps 714 mmHg 12%
    23:00 +36°C° 0 mm 4 mps 714 mmHg 12%

    Day after tomorrow, 13 December, Wednesday

    Time Temperature Precipitation Wind Pressure Humidity
    00:00 +35°C° 0 mm 4 mps 714 mmHg 12%
    01:00 +34°C° 0 mm 3 mps 714 mmHg 11%
    02:00 +33°C° 0 mm 3 mps 713 mmHg 11%
    03:00 +31°C° 0 mm 3 mps 713 mmHg 11%
    04:00 +31°C° 0 mm 3 mps 713 mmHg 11%
    05:00 +31°C° 0 mm 3 mps 713 mmHg 11%
    06:00 +31°C° 0 mm 3 mps 713 mmHg 10%
    07:00 +34°C° 0 mm 4 mps 714 mmHg 9%
    08:00 +37°C° 0 mm 5 mps 714 mmHg 8%
    09:00 +41°C° 0 mm 6 mps 715 mmHg 7%
    10:00 +42°C° 0 mm 5 mps 715 mmHg 7%
    11:00 +43°C° 0 mm 4 mps 714 mmHg 7%
    12:00 +44°C° 0 mm 4 mps 714 mmHg 7%
    13:00 +45°C° 0 mm 3 mps 713 mmHg 6%
    14:00 +45°C° 0 mm 3 mps 712 mmHg 6%
    15:00 +45°C° 0 mm 3 mps 712 mmHg 6%
    16:00 +45°C° 0 mm 3 mps 712 mmHg 6%
    17:00 +45°C° 0 mm 3 mps 712 mmHg 6%
    18:00 +45°C° 0 mm 2 mps 712 mmHg 6%
    19:00 +43°C° 0 mm 5 mps 712 mmHg 11%
    20:00 +41°C° 0 mm 7 mps 713 mmHg 15%
    21:00 +39°C° 0 mm 9 mps 713 mmHg 19%
    22:00 +38°C° 0 mm 10 mps 713 mmHg 21%
    23:00 +37°C° 0 mm 10 mps 713 mmHg 22%

    14 December, Thursday

    Time Temperature Precipitation Wind Pressure Humidity
    00:00 +36°C° 0 mm 11 mps 714 mmHg 24%
    01:00 +36°C° 0 mm 10 mps 713 mmHg 24%
    02:00 +34°C° 0 mm 10 mps 713 mmHg 25%
    03:00 +34°C° 0 mm 9 mps 713 mmHg 26%
    04:00 +33°C° 0 mm 8 mps 714 mmHg 27%
    05:00 +33°C° 0 mm 7 mps 714 mmHg 29%
    06:00 +32°C° 0 mm 5 mps 714 mmHg 30%
    07:00 +34°C° 0.1 mm 6 mps 715 mmHg 29%
    08:00 +35°C° 0.1 mm 6 mps 715 mmHg 27%
    09:00 +36°C° 0.1 mm 7 mps 716 mmHg 25%
    10:00 +38°C° 0 mm 6 mps 715 mmHg 22%
    11:00 +40°C° 0 mm 5 mps 715 mmHg 19%
    12:00 +41°C° 0 mm 4 mps 715 mmHg 17%
    13:00 +41°C° 0 mm 4 mps 714 mmHg 16%
    14:00 +42°C° 0 mm 4 mps 713 mmHg 16%
    15:00 +42°C° 0 mm 4 mps 713 mmHg 16%
    16:00 +41°C° 0 mm 5 mps 713 mmHg 17%
    17:00 +41°C° 0 mm 6 mps 713 mmHg 18%
    18:00 +40°C° 0 mm 7 mps 713 mmHg 19%
    19:00 +39°C° 0.2 mm 7 mps 714 mmHg 23%
    20:00 +36°C° 0.2 mm 7 mps 714 mmHg 27%
    21:00 +35°C° 0.2 mm 7 mps 715 mmHg 31%
    22:00 +34°C° 0.4 mm 6 mps 715 mmHg 33%
    23:00 +33°C° 0.4 mm 5 mps 715 mmHg 34%

    15 December, Friday

    Time Temperature Precipitation Wind Pressure Humidity
    00:00 +33°C° 0.4 mm 3 mps 715 mmHg 36%
    01:00 +31°C° 0.3 mm 3 mps 715 mmHg 38%
    02:00 +31°C° 0.3 mm 3 mps 715 mmHg 39%
    03:00 +30°C° 0.3 mm 3 mps 714 mmHg 41%
    04:00 +29°C° 0.6 mm 4 mps 715 mmHg 42%
    05:00 +28°C° 0.6 mm 5 mps 715 mmHg 43%
    06:00 +27°C° 0.6 mm 6 mps 715 mmHg 43%
    07:00 +28°C° 0.1 mm 7 mps 716 mmHg 41%
    08:00 +28°C° 0.1 mm 7 mps 716 mmHg 38%
    09:00 +29°C° 0.1 mm 7 mps 716 mmHg 35%
    10:00 +29°C° 0 mm 7 mps 716 mmHg 34%
    11:00 +30°C° 0 mm 7 mps 716 mmHg 33%
    12:00 +32°C° 0 mm 6 mps 715 mmHg 32%
    13:00 +33°C° 0 mm 6 mps 715 mmHg 31%
    14:00 +34°C° 0 mm 5 mps 714 mmHg 29%
    15:00 +36°C° 0 mm 5 mps 714 mmHg 27%
    16:00 +36°C° 0 mm 5 mps 714 mmHg 27%
    17:00 +35°C° 0 mm 5 mps 714 mmHg 27%
    18:00 +35°C° 0 mm 5 mps 714 mmHg 27%
    19:00 +34°C° 0 mm 5 mps 715 mmHg 29%
    20:00 +33°C° 0 mm 5 mps 715 mmHg 31%
    21:00 +32°C° 0 mm 5 mps 715 mmHg 33%
    22:00 +32°C° 0 mm 5 mps 715 mmHg 34%
    23:00 +30°C° 0 mm 4 mps 715 mmHg 35%

    16 December, Saturday

    Time Temperature Precipitation Wind Pressure Humidity
    00:00 +29°C° 0 mm 4 mps 715 mmHg 36%
    01:00 +29°C° 0 mm 4 mps 715 mmHg 36%
    02:00 +29°C° 0 mm 4 mps 715 mmHg 37%
    03:00 +28°C° 0 mm 3 mps 715 mmHg 37%
    04:00 +28°C° 0 mm 4 mps 715 mmHg 36%
    05:00 +28°C° 0 mm 5 mps 715 mmHg 34%
    06:00 +27°C° 0 mm 5 mps 716 mmHg 33%
    07:00 +29°C° 0 mm 6 mps 716 mmHg 29%
    08:00 +32°C° 0 mm 7 mps 717 mmHg 25%
    09:00 +34°C° 0 mm 7 mps 717 mmHg 21%
    10:00 +36°C° 0 mm 7 mps 716 mmHg 20%
    11:00 +38°C° 0 mm 6 mps 716 mmHg 19%
    12:00 +39°C° 0 mm 6 mps 715 mmHg 18%
    13:00 +40°C° 0 mm 5 mps 715 mmHg 17%
    14:00 +40°C° 0 mm 4 mps 714 mmHg 17%
    15:00 +40°C° 0 mm 3 mps 713 mmHg 16%
    16:00 +41°C° 0 mm 4 mps 713 mmHg 17%
    17:00 +40°C° 0 mm 4 mps 713 mmHg 19%
    18:00 +40°C° 0 mm 5 mps 713 mmHg 20%
    19:00 +38°C° 0 mm 4 mps 714 mmHg 23%
    20:00 +37°C° 0 mm 4 mps 714 mmHg 26%
    21:00 +36°C° 0 mm 4 mps 714 mmHg 29%
    22:00 +36°C° 0 mm 4 mps 714 mmHg 31%
    23:00 +35°C° 0 mm 4 mps 713 mmHg 33%
    Show more